Simultaneous Nadir Overpasses (SNOs) Predictions

Prediction of SNOs between AQUA and METOP-C Satellite Orbit:

Table of predicted SNOs for the next 14.0 days since TLE Epoch: 2/3/2024
Index Date (AQUA) Time (AQUA) Lat,Lon (AQUA) SZA (AQUA ) Date (METOP-C) Time (METOP-C) Lat,Lon (METOP-C) SZA (METOP-C ) Distance(km) Time Diff (sec)
1 02/05/2024 08:57:54 -75.09,-137.16 88.89 02/05/2024 08:57:28 -75.08,-137.13 88.90 0.99 26
2 02/05/2024 09:47:19 75.13, 30.38 91.15 02/05/2024 09:48:07 75.12, 30.32 91.14 2.06 48
3 02/08/2024 01:09:50 -75.07, -20.06 89.73 02/08/2024 01:09:05 -75.08, -20.03 89.72 1.47 45
4 02/08/2024 01:59:15 75.12, 147.46 90.31 02/08/2024 01:59:44 75.11, 147.40 90.31 1.90 29
5 02/10/2024 17:21:45 -75.06, 97.02 90.60 02/10/2024 17:20:42 -75.08, 97.06 90.57 1.90 63
6 02/10/2024 18:11:10 75.12, -95.47 89.45 02/10/2024 18:11:21 75.10, -95.54 89.44 2.73 11
7 02/10/2024 19:00:45 -75.75, 70.37 89.87 02/10/2024 19:01:50 -75.71, 73.65 90.00 90.19 65
8 02/13/2024 09:33:34 -74.86,-145.36 91.70 02/13/2024 09:32:23 -74.83,-146.56 91.69 34.82 71
9 02/13/2024 10:23:03 75.11, 21.60 88.57 02/13/2024 10:22:56 75.13, 21.64 88.58 1.77 7
10 02/13/2024 11:12:26 -75.16,-170.86 91.40 02/13/2024 11:13:37 -75.19,-170.87 91.38 3.23 71
11 02/16/2024 02:34:56 75.12, 138.66 87.66 02/16/2024 02:34:33 75.10, 138.65 87.65 2.00 23



Historial Predications of SNOs between AQUA and METOP-C
